• Join FlightAware (Why Join?)
  • Login
  • US Flag 
12:47AM EDT


 

Airport Tracker/Info


-or-


 

Live Flight TrackerFlight Track Log ✈ DAL3688 ✈ 20-Apr-2013 ✈ KMDT - KDTW

Flight Track Log - Related Links

Times and Time Zones

All times are in EDT time to prevent confusion due to time zone crossing. See the DAL3688 flight status page for this flight to view local times or setup timezone preferences in your user account.

Time Position Orientation Groundspeed Altitude Reporting Facility
EDT Latitude Longitude Course Direction KTS MPH feet Rate Location/Type
12:40PM 40.2877 -77.0298 294° West  Level FlightAware Approximate
12:40PM 40.1947 -76.9642 247° West 237 273 7,600  Level New York Center
12:41PM 40.2758 -77.1273 242° Southwest  Level FlightAware Approximate
12:41PM 40.1753 -77.0603 255° West 245 282 10,100  Level New York Center
12:42PM 40.2373 -77.2235 242° Southwest  Level FlightAware Approximate
12:42PM 40.1706 -77.1439 266° West 252 290 11,700  Level New York Center
12:43PM 40.1978 -77.3189 241° Southwest  Level FlightAware Approximate
12:43PM 40.1625 -77.2575 265° West 281 323 14,400  Level New York Center
12:44PM 40.1510 -77.4310 241° Southwest  Level FlightAware Approximate
12:44PM 40.1572 -77.3519 266° West 294 338 16,000  Level New York Center
12:45PM 40.1173 -77.5317 247° West  Level FlightAware Approximate
12:45PM 40.1486 -77.4681 264° West 294 338 17,800  Level New York Center
12:46PM 40.1403 -77.5758 264° West 299 344 19,300 1,440 Climbing New York Center
12:48PM 40.1281 -77.8433 267° West 309 356 22,700 1,320 Climbing Cleveland Center
12:49PM 40.1161 -77.9633 263° West 321 369 23,900 1,020 Climbing Cleveland Center
12:50PM 40.1064 -78.0831 264° West 333 383 24,800 900 Climbing Cleveland Center
12:51PM 40.0964 -78.2028 264° West 333 383 25,800 600 Climbing Cleveland Center
12:52PM 40.1158 -78.3297 281° West 339 390 26,000 60 Climbing Cleveland Center
12:53PM 40.1494 -78.4617 288° West 365 420 26,000  Level Cleveland Center
12:54PM 40.1811 -78.5967 287° West 376 433 26,000  Level Cleveland Center
12:55PM 40.2125 -78.7289 287° West 376 433 26,000  Level Cleveland Center
12:56PM 40.2439 -78.8614 287° West 376 433 26,000  Level Cleveland Center
12:57PM 40.2750 -78.9911 287° West 376 433 26,000  Level Cleveland Center
12:58PM 40.3058 -79.1239 287° West 376 433 26,000  Level Cleveland Center
12:59PM 40.3367 -79.2567 287° West 376 433 26,000  Level Cleveland Center
01:00PM 40.3672 -79.3758 289° West 376 433 26,000  Level Cleveland Center
01:01PM 40.3978 -79.5061 287° West 376 433 26,000  Level Cleveland Center
01:02PM 40.4258 -79.6339 286° West 376 433 26,000  Level Cleveland Center
01:03PM 40.4561 -79.7644 287° West 376 433 26,000  Level Cleveland Center
01:04PM 40.5008 -79.9058 293° West 381 438 26,000  Level Cleveland Center
01:05PM 40.5494 -80.0311 297° West 386 444 26,000  Level Cleveland Center
01:06PM 40.6000 -80.1567 298° West 386 444 26,000  Level Cleveland Center
01:07PM 40.6483 -80.2794 297° West 386 444 26,000  Level Cleveland Center
01:08PM 40.6925 -80.3914 298° West 379 436 26,000  Level Cleveland Center
01:09PM 40.7425 -80.5172 298° West 389 448 26,000  Level Cleveland Center
01:10PM 40.7967 -80.6381 301° West 395 455 26,000  Level Cleveland Center
01:11PM 40.8611 -80.7725 302° West 395 455 26,000  Level Cleveland Center
01:12PM 40.9172 -80.8992 300° West 400 460 26,000  Level Cleveland Center
01:13PM 40.9731 -81.0286 300° West 400 460 26,000  Level Cleveland Center
01:14PM 41.0289 -81.1611 299° West 405 466 26,000  Level Cleveland Center
01:15PM 41.0844 -81.2883 300° West 398 458 26,000  Level Cleveland Center
01:16PM 41.1294 -81.3908 300° West 404 465 26,000  Level Cleveland Center
01:17PM 41.1992 -81.5381 302° West 399 459 26,000  Level Cleveland Center
01:18PM 41.2564 -81.6686 300° West 399 459 26,000  Level Cleveland Center
01:19PM 41.3114 -81.7967 300° West 399 459 26,000  Level Cleveland Center
01:20PM 41.3664 -81.9278 299° West 399 459 26,000 -1,020 Level Cleveland Center
01:21PM 41.4189 -82.0561 299° West 399 459 24,000 -2,040 Descending Cleveland Center
01:22PM 41.4714 -82.1767 300° West 394 453 22,000 -2,040 Descending Cleveland Center
01:23PM 41.5200 -82.2914 300° West 372 428 20,000 -2,040 Descending Cleveland Center
01:24PM 41.5681 -82.4094 299° West 361 415 18,000 -1,920 Descending Cleveland Center
01:25PM 41.5983 -82.4742 302° West 354 407 16,900 -1,920 Descending Cleveland Center
01:25PM 41.6161 -82.5247 295° West 357 411 16,100 -2,040 Descending Cleveland Center
01:26PM 41.6422 -82.5836 301° West 361 415 15,100 -1,740 Descending Cleveland Center
01:26PM 41.6583 -82.6258 297° West 357 411 14,400 -1,980 Descending Cleveland Center
01:27PM 41.6922 -82.6992 302° West 354 407 13,100 -2,040 Descending Cleveland Center
01:27PM 41.7061 -82.7386 295° West 357 411 12,400 -1,140 Descending Cleveland Center
01:28PM 41.7506 -82.8097 310° West 359 413 12,000 -420 Descending Cleveland Center
01:28PM 41.7689 -82.8356 314° West 352 405 12,000  Level Cleveland Center
01:29PM 41.8139 -82.8844 321° Northwest 352 405 12,000  Level Cleveland Center
01:29PM 41.8422 -82.9244 314° West 347 399 12,000  Level Cleveland Center
01:30PM 41.8950 -82.9878 318° Northwest 353 406 12,000  Level Cleveland Center
01:30PM 41.9156 -83.0108 320° Northwest 347 399 12,000  Level Cleveland Center
01:31PM 41.9744 -83.0800 319° Northwest 352 405 12,000  Level Cleveland Center
01:31PM 41.9886 -83.0975 317° Northwest 347 399 12,000  Level Cleveland Center
01:32PM 42.0414 -83.1583 319° Northwest 352 405 12,000  Level Cleveland Center
01:32PM 42.0617 -83.1842 317° Northwest 352 405 12,000  Level Cleveland Center
01:33PM 42.1108 -83.2311 325° Northwest 295 339 12,000 -240 Level Cleveland Center
01:34PM 42.1436 -83.2350 355° North 253 291 11,800 -900 Descending FAA TRACON SMA TRACON (SMA)
01:34PM 42.1686 -83.2194 25° Northeast 259 298 11,300 -1,620 Descending FAA TRACON SMA TRACON (SMA)
01:34PM 42.1881 -83.2058 27° Northeast 259 298 10,700 -1,800 Descending FAA TRACON SMA TRACON (SMA)
01:35PM 42.2072 -83.1922 28° Northeast 253 291 10,100 -2,160 Descending FAA TRACON SMA TRACON (SMA)
01:35PM 42.2303 -83.1778 25° Northeast 239 275 9,300 -2,100 Descending FAA TRACON SMA TRACON (SMA)
01:35PM 42.2489 -83.1697 18° North 228 262 8,700 -1,680 Descending FAA TRACON SMA TRACON (SMA)
01:36PM 42.2653 -83.1608 22° Northeast 226 260 8,200 -2,100 Descending FAA TRACON SMA TRACON (SMA)
01:36PM 42.2894 -83.1525 14° North 221 254 7,300 -2,280 Descending FAA TRACON SMA TRACON (SMA)
01:36PM 42.3075 -83.1453 16° North 220 253 6,700 -1,800 Descending FAA TRACON SMA TRACON (SMA)
01:37PM 42.3239 -83.1433 North 216 249 6,100 -2,100 Descending FAA TRACON SMA TRACON (SMA)
01:37PM 42.3386 -83.1672 310° West 201 231 5,300 -2,100 Descending FAA TRACON SMA TRACON (SMA)
01:37PM 42.3456 -83.1889 293° West 202 232 4,700 -2,160 Descending FAA TRACON SMA TRACON (SMA)
01:38PM 42.3492 -83.2156 280° West 202 232 3,900 -1,620 Descending FAA TRACON SMA TRACON (SMA)
01:38PM 42.3406 -83.2336 237° Southwest 196 226 3,600 -1,080 Descending FAA TRACON SMA TRACON (SMA)
01:38PM 42.3253 -83.2514 221° Southwest 193 222 3,200 -1,260 Descending FAA TRACON SMA TRACON (SMA)
01:39PM 42.3106 -83.2653 215° Southwest 184 212 2,800 -1,080 Descending FAA TRACON SMA TRACON (SMA)
01:39PM 42.2992 -83.2758 214° Southwest 173 199 2,500 -900 Descending FAA TRACON SMA TRACON (SMA)
01:39PM 42.2836 -83.2881 210° Southwest 176 203 2,200 -900 Descending FAA TRACON SMA TRACON (SMA)